Time,TemperatureF,DewpointF,PressureIn,WindDirection,WindDirectionDegrees,WindSpeedMPH,WindSpeedGustMPH,Humidity,HourlyPrecipIn,Conditions,Clouds,dailyrainin,SoftwareType,DateUTC
2013-02-15 00:11:00,49.0,-99.9,30.24,NNE,20,9.0,11.0,-999,-99.99,,,-99.99,,2013-02-15 08:11:00,
2013-02-15 00:22:00,49.0,-99.9,30.24,NNE,20,9.0,11.0,-999,-99.99,,,-99.99,,2013-02-15 08:22:00,
2013-02-15 00:32:00,49.0,-99.9,30.24,NNE,20,9.0,11.0,-999,-99.99,,,-99.99,,2013-02-15 08:32:00,
2013-02-15 00:42:00,49.0,-99.9,30.24,NNE,20,9.0,11.0,-999,-99.99,,,-99.99,,2013-02-15 08:42:00,
2013-02-15 00:50:00,50.0,-99.9,30.23,North,10,11.0,13.0,-999,-99.99,,,-99.99,,2013-02-15 08:50:00,
2013-02-15 01:22:00,50.0,-99.9,30.23,North,10,11.0,13.0,-999,-99.99,,,-99.99,,2013-02-15 09:22:00,
2013-02-15 01:32:00,50.0,-99.9,30.23,North,10,11.0,13.0,-999,-99.99,,,-99.99,,2013-02-15 09:32:00,
2013-02-15 01:42:00,50.0,-99.9,30.23,North,10,11.0,13.0,-999,-99.99,,,-99.99,,2013-02-15 09:42:00,
2013-02-15 01:50:00,50.0,-99.9,30.23,North,360,9.0,11.0,-999,-99.99,,,-99.99,,2013-02-15 09:50:00,
2013-02-15 02:11:00,50.0,-99.9,30.23,North,360,9.0,11.0,-999,-99.99,,,-99.99,,2013-02-15 10:11:00,
2013-02-15 02:22:00,50.0,-99.9,30.23,North,360,9.0,11.0,-999,-99.99,,,-99.99,,2013-02-15 10:22:00,
2013-02-15 02:32:00,50.0,-99.9,30.23,North,360,9.0,11.0,-999,-99.99,,,-99.99,,2013-02-15 10:32:00,
2013-02-15 02:42:00,50.0,-99.9,30.23,North,360,9.0,11.0,-999,-99.99,,,-99.99,,2013-02-15 10:42:00,
2013-02-15 02:50:00,48.0,-99.9,30.24,SSE,160,4.0,7.0,-999,-99.99,,,-99.99,,2013-02-15 10:50:00,
2013-02-15 03:23:00,48.0,-99.9,30.24,SSE,160,4.0,7.0,-999,-99.99,,,-99.99,,2013-02-15 11:23:00,
2013-02-15 03:32:00,48.0,-99.9,30.24,SSE,160,4.0,7.0,-999,-99.99,,,-99.99,,2013-02-15 11:32:00,
2013-02-15 03:43:00,48.0,-99.9,30.24,SSE,160,4.0,7.0,-999,-99.99,,,-99.99,,2013-02-15 11:43:00,
2013-02-15 03:50:00,48.0,-99.9,30.23,West,260,2.0,2.0,-999,-99.99,,,-99.99,,2013-02-15 11:50:00,
2013-02-15 04:11:00,48.0,-99.9,30.23,West,260,2.0,2.0,-999,-99.99,,,-99.99,,2013-02-15 12:11:00,
2013-02-15 04:22:00,48.0,-99.9,30.23,West,260,2.0,2.0,-999,-99.99,,,-99.99,,2013-02-15 12:22:00,
2013-02-15 04:32:00,48.0,-99.9,30.23,West,260,2.0,2.0,-999,-99.99,,,-99.99,,2013-02-15 12:32:00,
2013-02-15 04:42:00,48.0,-99.9,30.23,West,260,2.0,2.0,-999,-99.99,,,-99.99,,2013-02-15 12:42:00,
2013-02-15 04:50:00,48.0,-99.9,30.22,North,0,0.0,2.0,-999,-99.99,,,-99.99,,2013-02-15 12:50:00,
2013-02-15 05:11:00,48.0,-99.9,30.22,North,0,0.0,2.0,-999,-99.99,,,-99.99,,2013-02-15 13:11:00,
2013-02-15 05:22:00,48.0,-99.9,30.22,North,0,0.0,2.0,-999,-99.99,,,-99.99,,2013-02-15 13:22:00,
2013-02-15 05:32:00,48.0,-99.9,30.22,North,0,0.0,2.0,-999,-99.99,,,-99.99,,2013-02-15 13:32:00,
2013-02-15 05:42:00,48.0,-99.9,30.22,North,0,0.0,2.0,-999,-99.99,,,-99.99,,2013-02-15 13:42:00,
2013-02-15 05:50:00,47.0,-99.9,30.22,SE,130,4.0,4.0,-999,-99.99,,,-99.99,,2013-02-15 13:50:00,
2013-02-15 06:12:00,47.0,-99.9,30.22,SE,130,4.0,4.0,-999,-99.99,,,-99.99,,2013-02-15 14:12:00,
2013-02-15 06:22:00,47.0,-99.9,30.22,SE,130,4.0,4.0,-999,-99.99,,,-99.99,,2013-02-15 14:22:00,
2013-02-15 06:32:00,47.0,-99.9,30.22,SE,130,4.0,4.0,-999,-99.99,,,-99.99,,2013-02-15 14:32:00,
2013-02-15 06:42:00,47.0,-99.9,30.22,SE,130,4.0,4.0,-999,-99.99,,,-99.99,,2013-02-15 14:42:00,
2013-02-15 06:50:00,48.0,-99.9,30.23,ESE,120,4.0,9.0,-999,-99.99,,,-99.99,,2013-02-15 14:50:00,
2013-02-15 07:11:00,48.0,-99.9,30.23,ESE,120,4.0,9.0,-999,-99.99,,,-99.99,,2013-02-15 15:11:00,
2013-02-15 07:22:00,48.0,-99.9,30.23,ESE,120,4.0,9.0,-999,-99.99,,,-99.99,,2013-02-15 15:22:00,
2013-02-15 07:32:00,48.0,-99.9,30.23,ESE,120,4.0,9.0,-999,-99.99,,,-99.99,,2013-02-15 15:32:00,
2013-02-15 07:42:00,48.0,-99.9,30.23,ESE,120,4.0,9.0,-999,-99.99,,,-99.99,,2013-02-15 15:42:00,
2013-02-15 07:50:00,48.0,-99.9,30.24,SE,140,2.0,2.0,-999,-99.99,,,-99.99,,2013-02-15 15:50:00,
2013-02-15 08:22:00,48.0,-99.9,30.24,SE,140,2.0,2.0,-999,-99.99,,,-99.99,,2013-02-15 16:22:00,
2013-02-15 08:32:00,48.0,-99.9,30.24,SE,140,2.0,2.0,-999,-99.99,,,-99.99,,2013-02-15 16:32:00,
2013-02-15 08:43:00,48.0,-99.9,30.24,SE,140,2.0,2.0,-999,-99.99,,,-99.99,,2013-02-15 16:43:00,
2013-02-15 08:50:00,49.0,-99.9,30.26,ESE,110,4.0,7.0,-999,-99.99,,,-99.99,,2013-02-15 16:50:00,
2013-02-15 09:11:00,49.0,-99.9,30.26,ESE,110,4.0,7.0,-999,-99.99,,,-99.99,,2013-02-15 17:11:00,
2013-02-15 09:22:00,49.0,-99.9,30.26,ESE,110,4.0,7.0,-999,-99.99,,,-99.99,,2013-02-15 17:22:00,
2013-02-15 09:32:00,49.0,-99.9,30.26,ESE,110,4.0,7.0,-999,-99.99,,,-99.99,,2013-02-15 17:32:00,
2013-02-15 09:42:00,49.0,-99.9,30.26,ESE,110,4.0,7.0,-999,-99.99,,,-99.99,,2013-02-15 17:42:00,
2013-02-15 09:50:00,49.0,-99.9,30.27,ESE,110,4.0,4.0,-999,-99.99,,,-99.99,,2013-02-15 17:50:00,
2013-02-15 10:22:00,49.0,-99.9,30.27,ESE,110,4.0,4.0,-999,-99.99,,,-99.99,,2013-02-15 18:22:00,
2013-02-15 10:32:00,49.0,-99.9,30.27,ESE,110,4.0,4.0,-999,-99.99,,,-99.99,,2013-02-15 18:32:00,
2013-02-15 10:42:00,49.0,-99.9,30.27,ESE,110,4.0,4.0,-999,-99.99,,,-99.99,,2013-02-15 18:42:00,
2013-02-15 10:50:00,50.0,-99.9,30.28,SSE,150,2.0,4.0,-999,-99.99,,,-99.99,,2013-02-15 18:50:00,
2013-02-15 11:11:00,50.0,-99.9,30.28,SSE,150,2.0,4.0,-999,-99.99,,,-99.99,,2013-02-15 19:11:00,
2013-02-15 11:22:00,50.0,-99.9,30.28,SSE,150,2.0,4.0,-999,-99.99,,,-99.99,,2013-02-15 19:22:00,
2013-02-15 11:32:00,50.0,-99.9,30.28,SSE,150,2.0,4.0,-999,-99.99,,,-99.99,,2013-02-15 19:32:00,
2013-02-15 11:42:00,50.0,-99.9,30.28,SSE,150,2.0,4.0,-999,-99.99,,,-99.99,,2013-02-15 19:42:00,
2013-02-15 11:50:00,51.0,-99.9,30.27,SSE,160,4.0,4.0,-999,-99.99,,,-99.99,,2013-02-15 19:50:00,
2013-02-15 12:11:00,51.0,-99.9,30.27,SSE,160,4.0,4.0,-999,-99.99,,,-99.99,,2013-02-15 20:11:00,
2013-02-15 12:22:00,51.0,-99.9,30.27,SSE,160,4.0,4.0,-999,-99.99,,,-99.99,,2013-02-15 20:22:00,
2013-02-15 12:32:00,51.0,-99.9,30.27,SSE,160,4.0,4.0,-999,-99.99,,,-99.99,,2013-02-15 20:32:00,
2013-02-15 12:42:00,51.0,-99.9,30.27,SSE,160,4.0,4.0,-999,-99.99,,,-99.99,,2013-02-15 20:42:00,
2013-02-15 12:50:00,52.0,-99.9,30.27,SSW,200,4.0,7.0,-999,-99.99,,,-99.99,,2013-02-15 20:50:00,
2013-02-15 13:22:00,52.0,-99.9,30.27,SSW,200,4.0,7.0,-999,-99.99,,,-99.99,,2013-02-15 21:22:00,
2013-02-15 13:32:00,52.0,-99.9,30.27,SSW,200,4.0,7.0,-999,-99.99,,,-99.99,,2013-02-15 21:32:00,
2013-02-15 13:42:00,52.0,-99.9,30.27,SSW,200,4.0,7.0,-999,-99.99,,,-99.99,,2013-02-15 21:42:00,
2013-02-15 13:50:00,52.0,-99.9,30.25,SSW,200,4.0,7.0,-999,-99.99,,,-99.99,,2013-02-15 21:50:00,
2013-02-15 14:22:00,52.0,-99.9,30.25,SSW,200,4.0,7.0,-999,-99.99,,,-99.99,,2013-02-15 22:22:00,
2013-02-15 14:32:00,52.0,-99.9,30.25,SSW,200,4.0,7.0,-999,-99.99,,,-99.99,,2013-02-15 22:32:00,
2013-02-15 14:42:00,52.0,-99.9,30.25,SSW,200,4.0,7.0,-999,-99.99,,,-99.99,,2013-02-15 22:42:00,
2013-02-15 14:50:00,52.0,-99.9,30.25,SW,230,4.0,7.0,-999,-99.99,,,-99.99,,2013-02-15 22:50:00,
2013-02-15 15:21:00,52.0,-99.9,30.25,SW,230,4.0,7.0,-999,-99.99,,,-99.99,,2013-02-15 23:21:00,
2013-02-15 15:32:00,52.0,-99.9,30.25,SW,230,4.0,7.0,-999,-99.99,,,-99.99,,2013-02-15 23:32:00,
2013-02-15 15:42:00,52.0,-99.9,30.25,SW,230,4.0,7.0,-999,-99.99,,,-99.99,,2013-02-15 23:42:00,
2013-02-15 15:50:00,51.0,-99.9,30.25,West,280,2.0,4.0,-999,-99.99,,,-99.99,,2013-02-15 23:50:00,
2013-02-15 16:22:00,51.0,-99.9,30.25,West,280,2.0,4.0,-999,-99.99,,,-99.99,,2013-02-16 00:22:00,
2013-02-15 16:32:00,51.0,-99.9,30.25,West,280,2.0,4.0,-999,-99.99,,,-99.99,,2013-02-16 00:32:00,
2013-02-15 16:42:00,51.0,-99.9,30.25,West,280,2.0,4.0,-999,-99.99,,,-99.99,,2013-02-16 00:42:00,
2013-02-15 16:50:00,52.0,-99.9,30.25,WSW,250,2.0,4.0,-999,-99.99,,,-99.99,,2013-02-16 00:50:00,
2013-02-15 17:11:00,52.0,-99.9,30.25,WSW,250,2.0,4.0,-999,-99.99,,,-99.99,,2013-02-16 01:11:00,
2013-02-15 17:21:00,52.0,-99.9,30.25,WSW,250,2.0,4.0,-999,-99.99,,,-99.99,,2013-02-16 01:21:00,
2013-02-15 17:32:00,52.0,-99.9,30.25,WSW,250,2.0,4.0,-999,-99.99,,,-99.99,,2013-02-16 01:32:00,
2013-02-15 17:42:00,52.0,-99.9,30.25,WSW,250,2.0,4.0,-999,-99.99,,,-99.99,,2013-02-16 01:42:00,
2013-02-15 17:50:00,51.0,-99.9,30.26,WSW,250,4.0,4.0,-999,-99.99,,,-99.99,,2013-02-16 01:50:00,
2013-02-15 18:22:00,51.0,-99.9,30.26,WSW,250,4.0,4.0,-999,-99.99,,,-99.99,,2013-02-16 02:22:00,
2013-02-15 18:32:00,51.0,-99.9,30.26,WSW,250,4.0,4.0,-999,-99.99,,,-99.99,,2013-02-16 02:32:00,
2013-02-15 18:42:00,51.0,-99.9,30.26,WSW,250,4.0,4.0,-999,-99.99,,,-99.99,,2013-02-16 02:42:00,
2013-02-15 18:50:00,50.0,-99.9,30.27,WSW,240,4.0,7.0,-999,-99.99,,,-99.99,,2013-02-16 02:50:00,
2013-02-15 19:22:00,50.0,-99.9,30.27,WSW,240,4.0,7.0,-999,-99.99,,,-99.99,,2013-02-16 03:22:00,
2013-02-15 19:32:00,50.0,-99.9,30.27,WSW,240,4.0,7.0,-999,-99.99,,,-99.99,,2013-02-16 03:32:00,
2013-02-15 19:42:00,50.0,-99.9,30.27,WSW,240,4.0,7.0,-999,-99.99,,,-99.99,,2013-02-16 03:42:00,
2013-02-15 19:50:00,49.0,-99.9,30.28,North,0,0.0,4.0,-999,-99.99,,,-99.99,,2013-02-16 03:50:00,
2013-02-15 20:11:00,49.0,-99.9,30.28,North,0,0.0,4.0,-999,-99.99,,,-99.99,,2013-02-16 04:11:00,
2013-02-15 20:21:00,49.0,-99.9,30.28,North,0,0.0,4.0,-999,-99.99,,,-99.99,,2013-02-16 04:21:00,
2013-02-15 20:32:00,49.0,-99.9,30.28,North,0,0.0,4.0,-999,-99.99,,,-99.99,,2013-02-16 04:32:00,
2013-02-15 20:42:00,49.0,-99.9,30.28,North,0,0.0,4.0,-999,-99.99,,,-99.99,,2013-02-16 04:42:00,
2013-02-15 20:50:00,49.0,-99.9,30.29,NW,310,2.0,7.0,-999,-99.99,,,-99.99,,2013-02-16 04:50:00,
2013-02-15 21:22:00,49.0,-99.9,30.29,NW,310,2.0,7.0,-999,-99.99,,,-99.99,,2013-02-16 05:22:00,
2013-02-15 21:32:00,49.0,-99.9,30.29,NW,310,2.0,7.0,-999,-99.99,,,-99.99,,2013-02-16 05:32:00,
2013-02-15 21:42:00,49.0,-99.9,30.29,NW,310,2.0,7.0,-999,-99.99,,,-99.99,,2013-02-16 05:42:00,
2013-02-15 21:50:00,49.0,-99.9,30.29,NNW,330,7.0,9.0,-999,-99.99,,,-99.99,,2013-02-16 05:50:00,
2013-02-15 22:11:00,49.0,-99.9,30.29,NNW,330,7.0,9.0,-999,-99.99,,,-99.99,,2013-02-16 06:11:00,
2013-02-15 22:22:00,49.0,-99.9,30.29,NNW,330,7.0,9.0,-999,-99.99,,,-99.99,,2013-02-16 06:22:00,
2013-02-15 22:32:00,49.0,-99.9,30.29,NNW,330,7.0,9.0,-999,-99.99,,,-99.99,,2013-02-16 06:32:00,
2013-02-15 22:42:00,49.0,-99.9,30.29,NNW,330,7.0,9.0,-999,-99.99,,,-99.99,,2013-02-16 06:42:00,
2013-02-15 22:50:00,48.0,-99.9,30.30,NW,320,7.0,9.0,-999,-99.99,,,-99.99,,2013-02-16 06:50:00,
2013-02-15 23:11:00,48.0,-99.9,30.30,NW,320,7.0,9.0,-999,-99.99,,,-99.99,,2013-02-16 07:11:00,
2013-02-15 23:22:00,48.0,-99.9,30.30,NW,320,7.0,9.0,-999,-99.99,,,-99.99,,2013-02-16 07:22:00,
2013-02-15 23:32:00,48.0,-99.9,30.30,NW,320,7.0,9.0,-999,-99.99,,,-99.99,,2013-02-16 07:32:00,
2013-02-15 23:42:00,48.0,-99.9,30.30,NW,320,7.0,9.0,-999,-99.99,,,-99.99,,2013-02-16 07:42:00,
2013-02-15 23:50:00,47.0,-99.9,30.30,NNW,340,7.0,9.0,-999,-99.99,,,-99.99,,2013-02-16 07:50:00,